Regional Weather Roundup
Issued by NWS Kansas City/Pleasant Hill, MO

Home | Current Version | Previous Version | Text Only | Print | Product List | Glossary On
Versions: 1 2 3 4 5 6 7 8 9 10 11 12 13 14 15 16 17 18 19 20 21 22 23 24 25 26 27 28 29 30 31 32 33 34 35 36 37 38 39 40 41 42 43 44 45 46 47 48 49 50
000
ASUS43 KEAX 302204
RWREAX

WEATHER ROUNDUP FOR EASTERN KANSAS AND NORTHWEST MISSOURI
NATIONAL WEATHER SERVICE KANSAS CITY/PLEASANT HILL MO
500 PM CDT TUE SEP 30 2014

KSZ040-057-103>105-MOZ028-029-037-043-302300-
...KANSAS CITY METROPOLITAN AREA...

CITY           SKY/WX    TMP DP  RH WIND       PRES   REMARKS
K.C. INTL      MOSUNNY   81  58  45 S15G24    29.79F
K.C. DOWNTOWN  PTSUNNY   85  57  38 S12       29.79F
LEES SUMMIT    SUNNY     81  56  42 S8G21     29.82S
OLATHE - IXD   SUNNY     82  57  42 S17G28    29.80F
OLATHE - OJC   MOSUNNY   81  57  43 S14       29.80F
LAWRENCE       MOSUNNY   83  57  41 S16G24    29.77F

$$

MOZ001>008-011>017-020>025-030>033-038>040-044>046-053-054-302300-
...NORTHERN AND CENTRAL MISSOURI...

CITY           SKY/WX    TMP DP  RH WIND       PRES   REMARKS
ST. JOSEPH     MOSUNNY   83  56  39 S15       29.77F
MOSBY          PTCLDY    82  54  36 S9G16     29.80F
WHITEMAN AFB   MOSUNNY   82  59  45 S6        29.83F
CLINTON        MOSUNNY   82  61  47 S10       29.83F HAZE
SEDALIA        SUNNY     84  58  40 S10       29.84F
WARSAW         NOT AVBL
MARSHALL       SUNNY     86  55  35 S7        29.83F
CHILLICOTHE      N/A     85  58  39 S6        29.81F
KIRKSVILLE     SUNNY     74  61  63 E12       29.87F

$$

MOZ041-047>049-056>058-063>065-088>090-097-302300-
...EASTERN AND SOUTHERN MISSOURI...

CITY           SKY/WX    TMP DP  RH WIND       PRES   REMARKS
ST. LOUIS INTL PTSUNNY   84  56  38 E7        29.88F
SPIRIT OF STL  MOSUNNY  N/A N/A N/A E7        29.85F
COLUMBIA       SUNNY     82  57  42 S3        29.85F
JEFFERSON CITY SUNNY     86  53  32 S9        29.83F
ROLLA          SUNNY     83  51  33 SE10      29.86S
LEBANON        SUNNY     82  54  36 S7        29.88S
OSAGE BEACH    PTSUNNY   82  59  44 S6        29.85F
SPRINGFIELD    MOSUNNY   82  56  40 S9        29.86F
BRANSON        MOSUNNY   84  55  37 S7        29.89F
NEVADA         SUNNY     82  57  42 S12G18    29.83F HAZE
JOPLIN         MOSUNNY   81  59  47 S9        29.84S
WEST PLAINS    SUNNY     80  50  34 S9        29.91S

$$

IAZ060-094-KSZ022-034>040-054-083-096-NEZ052-066-093-302300-
...KANSAS...SOUTHEAST NEBRASKA AND IOWA...

CITY           SKY/WX    TMP DP  RH WIND       PRES   REMARKS
TOPEKA         PTSUNNY   84  57  39 S13G22    29.76F
MANHATTAN      CLOUDY    83  61  47 S18       29.71F
EMPORIA        MOSUNNY   81  62  52 S17G24    29.77F
CHANUTE        MOSUNNY   82  62  50 S14       29.80S
WICHITA        MOSUNNY   85  58  39 S22       29.72F
OMAHA          RAIN      66  64  93 CALM      29.81R FOG
LINCOLN        LGT RAIN  64  63  94 SE10      29.77F FOG
FALLS CITY     CLOUDY    73  66  78 N12       29.76F
LAMONI         PTSUNNY   75  65  70 E12       29.82F
DES MOINES     PTSUNNY   70  58  65 E10G17    29.83F

$$



USA.gov is the U.S. government's official web portal to all federal, state and local government web resources and services.